Home > Weather > Brisbane > Past weeks

Flag for Australia Past Weather in Brisbane, Queensland, Australia — Yesterday and Last 2 Weeks

Now
59 °F

Clear.


Feels Like: 59 °F
Forecast: 46 / 72 °F
Wind: No wind

Location: Brisbane Airport M. O

Current Time: Aug 28, 2016 at 10:27:39 PM

Latest Report: Aug 28, 2016 at 10:00 PM


Visibility: 10 mi

Pressure: 30.21 "Hg

Humidity: 88%

Dew Point: 55 °F

Location of BrisbaneLocation

Past Weather in Brisbane — Graph

°F

Brisbane Temperature Yesterday

Maximum temperature yesterday: 70 °F (at 2:00 PM)
Minimum temperature yesterday: 48 °F (at 4:00 AM)
Average temperature yesterday: 59 °F

High & Low Weather Summary for the Past Weeks

 TemperatureHumidityPressure
High77 °F (Aug 23, 11:30 AM)100% (Aug 20, 6:00 AM)30.42 "Hg (Aug 20, 6:00 AM)
Low45 °F (Aug 21, 6:00 AM)21% (Aug 27, 2:00 PM)29.71 "Hg (Aug 24, 11:00 AM)
Average62 °F69%30.10 "Hg
* Reported Aug 13 9:00 PM — Aug 28 9:00 PM, Brisbane, Weather by CustomWeather, © 2016

Note: Actual official high and low records may vary slightly from our data, if they occured in-between our weather recording intervals... More about our weather records

Advertising

Brisbane Weather History for the Previous 24 Hours

Scroll right to see more
 ConditionsComfort  
Time TempWeatherWind HumidityBarometerVisibility
9:00 PM
Sun, Aug 28
59 °FClear.No wind88%30.21 "Hg10 mi
8:30 PM61 °FClear.3 mph77%30.21 "Hg10 mi
8:00 PM61 °FClear.5 mph77%30.21 "Hg10 mi
7:00 PM64 °FClear.5 mph73%30.18 "Hg10 mi
6:00 PM64 °FClear.7 mph68%30.18 "Hg10 mi
5:00 PM66 °FPassing clouds.10 mph60%30.15 "HgN/A
4:30 PM68 °FPassing clouds.12 mph56%30.15 "HgN/A
4:00 PM68 °FPassing clouds.13 mph49%30.12 "HgN/A
3:00 PM70 °FPassing clouds.9 mph46%30.15 "HgN/A
2:30 PM70 °FPassing clouds.9 mph43%30.15 "HgN/A
2:00 PM72 °FPassing clouds.9 mph41%30.15 "HgN/A
1:00 PM70 °FPassing clouds.9 mph43%30.15 "HgN/A
12:00 PM72 °FPassing clouds.7 mph41%30.18 "HgN/A
11:30 AM70 °FPassing clouds.8 mph38%30.21 "HgN/A
11:00 AM68 °FPassing clouds.8 mph40%30.24 "HgN/A
10:30 AM66 °FPassing clouds.10 mph40%30.24 "HgN/A
10:00 AM66 °FSunny.12 mph43%30.24 "Hg10 mi
9:30 AM64 °FSunny.13 mph46%30.24 "Hg10 mi
9:00 AM63 °FSunny.14 mph49%30.24 "Hg10 mi
8:00 AM59 °FSunny.9 mph55%30.21 "Hg10 mi
7:00 AM50 °FSunny.7 mph76%30.21 "Hg10 mi
6:30 AM48 °FSunny.8 mph76%30.18 "Hg10 mi
6:00 AM45 °FSunny.6 mph87%30.18 "Hg10 mi
5:00 AM48 °FClear.6 mph76%30.15 "Hg10 mi
4:00 AM48 °FClear.7 mph76%30.15 "Hg10 mi
3:30 AM52 °FClear.9 mph67%30.15 "Hg10 mi
3:00 AM50 °FClear.6 mph71%30.15 "HgN/A
2:30 AM50 °FClear.8 mph71%30.15 "Hg10 mi
2:00 AM52 °FClear.7 mph67%30.15 "Hg10 mi
1:30 AM48 °FClear.7 mph82%30.15 "Hg10 mi
1:00 AM54 °FClear.6 mph67%30.15 "Hg10 mi
12:30 AM55 °FClear.6 mph63%30.15 "Hg10 mi
12:00 AM52 °FClear.7 mph72%30.18 "Hg10 mi
11:30 PM
Sat, Aug 27
52 °FClear.6 mph72%30.18 "Hg10 mi
11:00 PM55 °FClear.7 mph59%30.15 "Hg10 mi
10:30 PM55 °FClear.6 mph63%30.15 "Hg10 mi
10:00 PM54 °FClear.5 mph72%30.15 "Hg10 mi
Weather by CustomWeather, © 2016

See weather overviewHow to use our weather pages